Location: Johnpet
(16.5593°N, 81.2248°E)
Time: 12:36:56
(UTC+00:00)

Daily predictions for brighter satellites

Satellite Brightness Start Highest point End
(mag) Time Altitude Azimuth Time Altitude Azimuth Time Altitude Azimuth
SL-8 R/B 4.1 13:17:45 10° NNW 13:22:16 46° NE 13:26:47 10° ESE
COBE Rocket 4.0 13:17:16 10° N 13:22:18 87° WNW 13:27:13 10° SSW
SWIFT 2.0 13:20:38 10° W 13:23:43 59° N 13:26:47 10° ENE
Cosmos 405 Rocket 4.3 13:25:36 10° NNW 13:28:13 29° W 13:30:51 10° SSW
Cosmos 1110 Rocket 4.0 13:24:16 10° S 13:29:29 70° ESE 13:34:44 10° NNE
ARIANE 6 FM1 Upper Stage 3.3 13:27:47 10° N 13:31:25 35° ENE 13:34:54 11° SE
Cosmos 1607 3.9 13:26:02 10° SSW 13:32:03 68° ESE 13:38:08 10° NNE
SAR-Lupe-4 3.5 13:39:19 10° SSE 13:42:47 64° ENE 13:46:15 10° N
ATLAS 5 CENTAUR R/B 1.2 13:37:51 10° W 13:43:07 49° N 13:45:18 12° ENE
Cosmos 1818 3.8 13:38:34 10° NNW 13:43:59 74° WSW 13:49:21 10° SSE
Cosmos 2100 Rocket 4.2 13:45:15 10° SSE 13:51:05 46° E 13:56:59 10° NNE
Meteor 2-1 Rocket 4.3 13:45:58 10° S 13:51:38 59° E 13:57:09 10° NNE
GPS 2-15 Rocket1 4.3 13:47:54 10° SW 13:51:50 25° SSE 13:53:46 19° SE
SL-24 R/B 4.1 13:47:57 10° NNE 13:52:09 55° E 13:56:31 10° S
SPOT 5 3.9 13:50:45 18° ESE 13:52:16 22° ENE 13:55:34 10° NNE
Resurs 01 Rocket 1.8 13:49:04 10° S 13:53:25 75° W 13:57:45 10° NNW
Cosmos 1656 3.6 13:48:57 10° NNW 13:54:32 74° ENE 14:00:02 11° SSE
TOS 3.2 13:54:56 10° W 13:57:25 73° S 14:01:03 19° E
PSLV R/B 3.3 13:53:38 10° SSE 13:57:45 84° ENE 14:01:54 10° N
Cosmos 2151 Rocket 3.7 13:57:06 10° S 14:01:26 76° W 14:05:47 10° N
Okean 2 Rocket 3.0 13:57:57 10° S 14:02:22 74° E 14:06:50 10° N
FALCON 9 R/B 3.9 13:57:00 10° WSW 14:04:29 82° SSE 14:38:08 10° ENE
Helios 1A Rocket 3.4 14:06:14 10° NNE 14:08:06 27° ENE 14:08:06 27° ENE
Cosmos 1536 Rocket 4.3 14:05:47 10° NNE 14:09:41 31° E 14:10:13 30° E
ASTEX 1 3.8 14:07:56 26° SE 14:10:08 40° E 14:14:45 10° NNE
SL-24 R/B 4.4 14:07:27 10° NNE 14:12:09 69° ESE 14:17:42 10° S
ATLAS 2A CENTAUR R/B 2.8 14:10:34 10° NW 14:13:01 20° N 14:13:36 18° NNE
NOSS 3-3 (A) 3.6 14:08:23 10° SSW 14:13:07 69° WNW 14:18:09 10° NNE
Meteor 2-3 Rocket 4.4 14:11:44 10° NNE 14:16:49 34° E 14:17:57 31° ESE
Cosmos 2082 Rocket 2.1 14:11:52 10° SSW 14:17:34 86° ESE 14:23:17 10° NNE
Cosmos 1992 Rocket 4.4 14:19:59 36° ESE 14:20:24 36° E 14:25:09 10° NE
Cosmos 1725 Rocket 4.2 14:16:15 17° SSE 14:20:59 49° E 14:26:58 10° NNE
Cosmos 1190 Rocket 4.2 14:16:29 10° NNW 14:21:39 71° WSW 14:25:27 18° S
Cosmos 1455 Rocket 3.2 14:21:34 44° ESE 14:22:11 48° E 14:26:24 10° NNE
GPS 2-12 Rocket1 3.2 14:18:41 10° W 14:22:55 52° SSW 14:23:48 44° SSE
Milstar 3 4.0 14:18:33 10° WNW 14:24:35 35° N 14:30:39 15° ENE
Delta 168 3.5 14:23:42 10° W 14:26:40 38° NNW 14:27:51 28° NNE
SL-4 R/B 4.1 14:24:40 10° NNE 14:26:12 13° NE 14:26:12 13° NE
Cosmos 332 Rocket 3.6 14:25:33 10° N 14:30:17 74° ENE 14:31:24 51° SE
Okean 1 Rocket 4.1 14:29:04 10° SSW 14:33:13 45° W 14:37:25 10° N
Meteor 1-27 4.1 14:29:58 20° S 14:33:59 70° E 14:39:36 10° NNE
Cosmos 2016 Rocket 3.9 14:32:56 27° SSE 14:36:29 63° E 14:42:38 10° NNE
Cosmos 2173 Rocket 4.3 14:30:56 10° SSW 14:36:57 64° W 14:43:03 10° N
SJ 16-02 3.8 14:34:57 10° NW 14:37:52 18° W 14:40:46 10° SW
Cosmos 968 Rocket 3.7 14:33:55 10° N 14:38:56 48° ENE 14:38:56 48° ENE
SEDSat Delta rocket 4.0 14:34:32 10° SW 14:40:54 55° SSE 14:41:54 50° ESE
Cosmos 1697 Rocket 2.6 14:42:30 10° N 14:48:03 65° ENE 14:48:22 64° E
USA 215 3.2 14:49:08 52° ESE 14:50:51 76° NE 14:57:21 10° NNW
H-10 deb 4.2 14:48:55 10° WSW 14:50:45 15° SW 14:50:45 15° SW
COSMOS 2406 3.0 14:53:33 55° S 14:54:52 81° ESE 15:00:37 10° NNE
Cosmos 1816 Rocket 4.3 14:55:28 10° N 15:01:27 69° ENE 15:01:27 69° ENE
SWIFT 4.5 14:58:41 10° WNW 14:59:39 17° WNW 14:59:39 17° WNW
Cosmos 2061 Rocket 4.1 15:06:45 60° NE 15:06:45 60° NE 15:12:04 10° N
USA 229 DEB 4.0 14:59:22 10° NNW 15:07:35 82° ENE 15:09:22 60° SE
USA 229 4.0 14:59:25 10° NNW 15:07:38 81° ENE 15:09:22 61° SE
Terra 3.1 15:10:10 33° N 15:10:10 33° N 15:12:47 10° N
CSL-04 Rocket 4.4 15:07:39 38° SW 15:09:10 48° W 15:14:27 10° NNW
SL-08 R/B 4.1 15:10:49 10° N 15:15:12 47° WNW 15:15:12 47° WNW
Cosmos 1980 Rocket 3.4 15:13:03 10° N 15:16:19 32° NNE 15:16:19 32° NNE
CZ-4 R/B 3.9 15:24:30 17° NW 15:24:30 17° NW 15:25:36 10° NW
CZ-4B R/B 3.9 15:27:55 50° NNW 15:27:55 50° NNW 15:32:00 10° NNW
Aureole 3 Rocket 4.4 15:37:44 68° NW 15:37:44 68° NW 15:45:13 10° N
ATLAS 3B R/B 3.1 15:38:43 10° NNW 15:44:53 62° NW 15:44:53 62° NW
ADEOS II 4.5 20:46:56 10° NE 20:48:30 18° NE 20:48:30 18° NE
Resurs 1-4 Rocket 4.4 20:54:29 10° NNE 20:55:53 19° NNE 20:55:53 19° NNE
Atlas Centaur 2 4.2 21:01:05 29° NNW 21:01:42 29° N 21:08:29 10° NE
CZ-2D R/B 3.7 21:32:00 10° N 21:34:26 26° NNW 21:34:26 26° NNW
H-2A R/B 3.4 21:40:40 10° N 21:43:36 31° NNW 21:43:36 31° NNW
Ariane H10+ 4.4 21:42:27 49° SW 21:46:06 57° S 22:00:53 10° ESE
USA 267 4.1 21:41:12 10° ENE 21:47:17 41° SE 21:48:52 36° SSE
CZ-3 R/B 3.8 21:09:07 10° WNW 21:53:22 83° NNE 22:03:28 10° ESE
Nadezhda 1 Rocket 3.9 21:55:46 68° NW 21:55:46 68° NW 22:01:20 10° N
ARGOS 3.1 21:51:48 10° NNE 21:57:08 76° ESE 21:57:14 76° ESE
Cosmos 1933 Rocket 4.3 21:55:23 10° N 21:58:53 49° NE 21:58:53 49° NE
USA 307 4.5 22:05:50 14° N 22:08:25 30° NE 22:11:58 10° ESE
USA 281 3.1 22:02:01 10° SSE 22:08:34 90° ESE 22:15:10 10° NNW
AQUA 3.7 22:07:24 10° N 22:11:49 78° NNW 22:11:49 78° NNW
Meteor 1-12 Rocket 4.1 22:06:56 10° NNW 22:12:31 68° W 22:12:48 67° WSW
GOES 2 Rocket 3.7 22:14:27 56° S 22:15:00 59° SSE 22:19:43 10° ENE
Cosmos 1680 Rocket 3.8 22:15:45 38° SSE 22:17:39 64° ESE 22:22:47 10° NNE
Cosmos 2344 4.4 22:16:59 33° W 22:18:31 35° WNW 22:25:20 10° N
SL-08 RB Rocket 3.8 22:14:15 10° NNE 22:18:47 73° ESE 22:19:51 51° S
GPS 2-17 Rocket1 3.3 22:18:12 55° NNW 22:18:47 61° N 22:23:19 10° E
Cosmos 1943 3.2 22:13:47 10° NNW 22:18:47 54° W 22:18:47 54° W
Centaur D AC-29 2.1 22:18:26 36° WSW 22:21:58 75° NNW 22:25:46 10° ENE
H-2A R/B 1.7 22:19:24 10° NNE 22:23:24 90° ESE 22:23:31 84° S
Cosmos 1869 Rocket 3.3 22:26:23 10° N 22:30:40 80° W 22:31:55 45° S
GPS 2-15 Rocket1 3.8 22:31:22 35° S 22:31:22 35° S 22:34:55 10° SE
ADEOS II 3.8 22:27:16 10° NNW 22:29:19 16° NW 22:29:19 16° NW
NOSS 3-2 (C) 3.2 22:30:37 42° WNW 22:30:49 42° WNW 22:35:31 10° N
Cosmos 2228 Rocket 3.7 22:28:10 19° SSE 22:31:17 56° E 22:35:38 10° NNE
Cosmos 1707 Rocket 3.3 22:34:33 47° SSW 22:35:44 77° W 22:40:00 10° N
NOSS 2-3 (D) 4.0 22:37:15 39° WNW 22:37:15 39° WNW 22:40:45 10° N
Cosmos 1862 Rocket 3.6 22:39:48 44° SW 22:40:51 57° W 22:45:10 10° N
NOSS 2-3 (E) 4.2 22:41:11 32° WNW 22:41:11 32° WNW 22:44:28 10° N
EPKM 4.1 22:39:44 36° SW 22:41:09 45° S 22:55:31 10° ESE
SL-24 R/B 4.0 22:37:17 10° N 22:41:14 63° WNW 22:42:44 38° SW
Cosmos 494 Rocket 3.8 22:39:16 26° SSW 22:42:10 87° WNW 22:47:18 10° NNE
Cosmos 1603 3.6 22:39:01 10° NNW 22:44:45 87° WSW 22:50:26 10° SSE
Cosmos 1900 4.2 22:41:29 10° NNW 22:46:20 89° ENE 22:51:14 10° SSE
Cosmos 1943 Rocket 2.3 22:43:29 16° S 22:48:02 79° ESE 22:53:41 10° NNE
ATLAS 2AS CENTAUR R/B 2.6 22:44:01 10° NNW 22:50:47 76° WSW 22:57:43 10° SSE
Cosmos 2112 Rocket 3.9 22:47:38 24° SSW 22:50:49 68° WNW 22:56:01 10° N
Atlas Centaur 2 4.4 22:45:10 10° NW 22:52:01 32° N 22:59:06 10° ENE
FengYun 1-2 T 4.5 22:47:51 10° NNE 22:53:22 71° ESE 22:58:51 10° S
ARIANE 5 R/B 3.1 22:59:07 15° SSW 22:59:21 15° S 23:01:29 10° SSE
IUS-1 SRM-2 4.2 23:00:17 15° WNW 23:03:10 42° N 23:14:58 10° ENE
SJ-11-01 4.1 23:01:15 10° N 23:05:51 79° WNW 23:10:26 10° SSW
OAO 3 Rocket 3.8 23:03:20 18° SSW 23:06:40 50° SE 23:11:20 10° ENE
Meteor 2-5 Rocket 3.6 23:01:22 10° SSW 23:06:50 64° W 23:12:17 10° N
Okean 1-7 4.1 23:07:10 21° W 23:07:56 22° W 23:11:09 10° NNW
Intelsat 5-1 Rocket 3.9 23:05:07 10° WNW 23:09:06 42° N 23:18:42 10° ENE
Timation 2 Rocket 4.4 23:03:16 10° S 23:09:06 61° ESE 23:15:02 10° NNE
Cosmos 2278 Rocket 2.1 23:06:33 10° SSW 23:12:12 80° WNW 23:17:52 10° NNE
CZ-2C R/B 2.8 23:08:43 10° N 23:12:52 37° WNW 23:16:31 13° SW
Cosmos 2366 rocket 4.0 23:06:35 10° N 23:12:56 87° W 23:19:17 10° S
Cosmos 1733 Rocket 3.1 23:15:05 10° NNW 23:19:17 55° W 23:23:27 10° S
Cosmos 1400 Rocket 4.1 23:21:37 10° NW 23:24:13 18° W 23:26:41 11° SW
Cosmos 2181 Rocket 4.4 23:22:47 10° SSW 23:28:23 38° W 23:34:01 10° NNW
USA 267 4.1 23:24:16 10° NNE 23:30:02 34° NW 23:35:48 10° WSW
SL-16 R/B 2.9 23:28:16 10° S 23:34:06 42° WSW 23:39:59 10° NNW
SEDSat Delta rocket 3.0 23:29:15 10° WNW 23:34:08 77° SSW 23:38:28 10° SE
USA 59 Rocket 0.6 23:29:04 10° SSW 23:34:52 72° ESE 23:38:58 10° NNE
USA 307 4.1 23:32:40 10° W 23:35:20 18° WSW 23:38:02 10° SSW
EPKM 4.1 23:33:17 10° SSW 23:35:55 30° SE 23:42:29 10° E
Exosat Rocket 4.5 23:33:20 10° SW 23:38:13 30° WNW 23:42:36 10° NNW
Cosmos 1821 Rocket 4.0 23:33:59 10° N 23:40:10 79° W 23:46:16 10° S
Meteosat 1 Rocket2 3.2 23:39:02 10° WNW 23:44:46 76° SSW 23:48:50 10° ESE
Stardust Del rocket 2.8 23:42:10 10° WNW 23:46:04 74° NNE 23:48:37 10° E
NOSS 2-1 (C) 4.3 23:41:10 10° SSW 23:47:10 67° ESE 23:51:23 10° NNE
